Regional Weather Roundup
Issued by NWS Goodland, KS

Home | Current Version | Previous Version | Graphics & Text | Print | Product List | Glossary On
Versions: 1 2 3 4 5 6 7 8 9 10 11 12 13 14 15 16 17 18 19 20 21 22 23 24 25 26 27 28 29 30 31 32 33 34 35 36 37 38 39 40 41 42 43 44 45 46 47 48 49 50
000
ASUS43 KGLD 291708
RWRGLD

GOODLAND FORECAST AREA HOURLY WEATHER ROUNDUP
NATIONAL WEATHER SERVICE GOODLAND KS
1100 AM MDT WED MAR 29 2017

...OFFICIAL OBSERVATIONS...

CITY           SKY/WX    TMP DP  RH WIND       PRES   REMARKS
GOODLAND KS    CLOUDY    41  39  93 N28G36    29.97F
HILL CITY KS   LGT RAIN  45  43  93 N24G31    29.89F FOG
IMPERIAL NEB   CLOUDY    44  39  82 N17G26    30.04F
MCCOOK NEB     CLOUDY    44  43  96 N22       29.98F FOG
AKRON CO       CLOUDY    39  36  89 N15       30.08F
BURLINGTON CO  CLOUDY    40  39  97 N25G36    29.99F
LIMON CO       CLOUDY    37  37 100 N23G32    30.06S
$$

...UNOFFICIAL OBSERVATIONS...

CITY           SKY/WX    TMP DP  RH WIND       PRES   REMARKS
NORTON KS      LGT RAIN  43  39  87 N20G28    29.91F
SHARON SPRINGS   N/A     41  40  95 N18G35      N/A
TRENTON NEB      N/A     43  32  65 N13         N/A
KIT CARSON CO    N/A     40  37  88 MISG        N/A
YUMA CO        CLOUDY    37  36  93 N17       30.07S
$$



USA.gov is the U.S. government's official web portal to all federal, state and local government web resources and services.